Regional Weather Roundup
Issued by NWS Kansas City/Pleasant Hill, MO

Home | Current Version | Previous Version | Graphics & Text | Print | Product List | Glossary Off
Versions: 1 2 3 4 5 6 7 8 9 10 11 12 13 14 15 16 17 18 19 20 21 22 23 24 25 26 27 28 29 30 31 32 33 34 35 36 37 38 39 40 41 42 43 44 45 46 47 48 49 50

033
ASUS43 KEAX 240710
RWREAX

WEATHER ROUNDUP FOR EASTERN KANSAS AND NORTHWEST MISSOURI
NATIONAL WEATHER SERVICE KANSAS CITY/PLEASANT HILL MO
200 AM CDT FRI MAR 24 2017

KSZ040-057-103>105-MOZ028-029-037-043-240800-
...KANSAS CITY METROPOLITAN AREA...

CITY           SKY/WX    TMP DP  RH WIND       PRES   REMARKS
K.C. INTL      MOCLDY    68  49  50 S16       29.80R
K.C. DOWNTOWN  MOCLDY    70  48  45 S13G23    29.78S
LEES SUMMIT    CLOUDY    69  48  47 S21G31    29.80R
OLATHE - IXD   CLOUDY    67  49  52 S18       29.78S
OLATHE - OJC   CLOUDY    66  50  56 S16       29.79R
LAWRENCE       CLOUDY    70  51  51 S10       29.79R

$$

MOZ001>008-011>017-020>025-030>033-038>040-044>046-053-054-240800-
...NORTHERN AND CENTRAL MISSOURI...

CITY           SKY/WX    TMP DP  RH WIND       PRES   REMARKS
ST. JOSEPH     CLOUDY    66  50  56 S8        29.79R
MOSBY          CLOUDY    70  45  40 S12G24    29.80S
WARRENSBURG    PTCLDY    70  45  40 S20G29    29.80F
WHITEMAN AFB   PTCLDY    67  49  51 S20G28    29.80F
CLINTON        CLOUDY    68  48  49 S16G24    29.83F
SEDALIA        CLOUDY    68  50  52 S20       29.85F
WARSAW         NOT AVBL
CHILLICOTHE      N/A     65  47  52 S5        29.83R
KIRKSVILLE     CLOUDY    63  32  31 S12       29.84F

$$

MOZ041-047>049-056>058-063>065-088>090-097-240800-
...EASTERN AND SOUTHERN MISSOURI...

CITY           SKY/WX    TMP DP  RH WIND       PRES   REMARKS
ST. LOUIS INTL CLOUDY    58  44  60 SE9       29.95F
SPIRIT OF STL  CLOUDY    56  47  71 E6        29.93S
COLUMBIA       PTCLDY    64  52  64 S13       29.88S
JEFFERSON CITY PTCLDY    70  51  51 S13       29.89S
ROLLA          PTCLDY    66  51  58 S18G30    29.91S
OSAGE BEACH    CLOUDY   N/A N/A N/A S13G20    29.90S
SPRINGFIELD    CLEAR     66  47  50 S17       29.89S
BRANSON        CLEAR     68  46  45 S12G21    29.95R
JOPLIN         CLEAR     70  48  45 S20G29    29.83F
WEST PLAINS    CLEAR     64  51  62 S10       30.00F

$$

IAZ060-094-KSZ022-034>040-054-083-096-NEZ052-066-093-240800-
...KANSAS...SOUTHEAST NEBRASKA AND IOWA...

CITY           SKY/WX    TMP DP  RH WIND       PRES   REMARKS
TOPEKA         CLOUDY    69  52  54 S6        29.80R
MANHATTAN      CLOUDY    71  48  43 S10G21    29.74S
EMPORIA        PTCLDY    67  50  54 SW10      29.80R
CHANUTE        CLOUDY    69  50  50 S20       29.78S
WICHITA        CLOUDY    69  47  45 S20       29.74F
OMAHA          CLOUDY    70  51  51 S14       29.69R
LINCOLN        CLOUDY    67  50  54 SW7       29.70R
FALLS CITY     PTCLDY    65  48  54 S13       29.74S
LAMONI         MOCLDY    62  46  55 S10       29.78S
DES MOINES     MOCLDY    56  43  61 SE7       29.76S

$$





USA.gov is the U.S. government's official web portal to all federal, state and local government web resources and services.